Hourly Weather Serowe

Today, 7 August, Friday

Time Temperature Precipitation Wind Pressure Humidity
00:00 +14°C° 0 mm 1 mps 669 mmHg 31%
01:00 +13°C° 0 mm 1 mps 668 mmHg 32%
02:00 +12°C° 0 mm 1 mps 668 mmHg 33%
03:00 +12°C° 0 mm 1 mps 668 mmHg 34%
04:00 +11°C° 0 mm 1 mps 668 mmHg 35%
05:00 +11°C° 0 mm 1 mps 668 mmHg 36%
06:00 +13°C° 0 mm 1 mps 669 mmHg 34%
07:00 +14°C° 0 mm 2 mps 670 mmHg 31%
08:00 +16°C° 0 mm 2 mps 672 mmHg 24%
09:00 +17°C° 0 mm 4 mps 672 mmHg 33%
10:00 +19°C° 0 mm 6 mps 673 mmHg 42%
11:00 +20°C° 0 mm 8 mps 673 mmHg 51%
12:00 +20°C° 0 mm 8 mps 673 mmHg 50%
13:00 +21°C° 0 mm 9 mps 672 mmHg 49%
14:00 +21°C° 0 mm 9 mps 672 mmHg 45%
15:00 +20°C° 0 mm 8 mps 672 mmHg 50%
16:00 +18°C° 0 mm 8 mps 672 mmHg 55%
17:00 +16°C° 0 mm 8 mps 671 mmHg 59%
18:00 +15°C° 0 mm 8 mps 672 mmHg 65%
19:00 +12°C° 0 mm 8 mps 672 mmHg 71%
20:00 +11°C° 0 mm 8 mps 672 mmHg 77%
21:00 +10°C° 0 mm 8 mps 673 mmHg 78%
22:00 +10°C° 0 mm 8 mps 673 mmHg 79%
23:00 +10°C° 0 mm 8 mps 673 mmHg 80%

Tomorrow, 8 August, Saturday

Time Temperature Precipitation Wind Pressure Humidity
00:00 +10°C° 0 mm 8 mps 673 mmHg 80%
01:00 +9°C° 0 mm 8 mps 673 mmHg 81%
02:00 +9°C° 0 mm 8 mps 672 mmHg 81%
03:00 +9°C° 0 mm 8 mps 672 mmHg 80%
04:00 +9°C° 0 mm 8 mps 672 mmHg 79%
05:00 +9°C° 0 mm 7 mps 672 mmHg 78%
06:00 +9°C° 0 mm 7 mps 673 mmHg 78%
07:00 +7°C° 0 mm 8 mps 673 mmHg 78%
08:00 +7°C° 0 mm 8 mps 673 mmHg 78%
09:00 +10°C° 0 mm 7 mps 674 mmHg 71%
10:00 +11°C° 0 mm 7 mps 674 mmHg 64%
11:00 +14°C° 0 mm 7 mps 674 mmHg 57%
12:00 +16°C° 0 mm 7 mps 674 mmHg 50%
13:00 +19°C° 0 mm 6 mps 673 mmHg 43%
14:00 +21°C° 0 mm 6 mps 672 mmHg 35%
15:00 +21°C° 0 mm 5 mps 672 mmHg 35%
16:00 +21°C° 0 mm 5 mps 671 mmHg 35%
17:00 +20°C° 0 mm 5 mps 671 mmHg 35%
18:00 +18°C° 0 mm 4 mps 671 mmHg 43%
19:00 +14°C° 0 mm 3 mps 670 mmHg 51%
20:00 +13°C° 0 mm 2 mps 670 mmHg 60%
21:00 +12°C° 0 mm 2 mps 670 mmHg 66%
22:00 +10°C° 0 mm 2 mps 670 mmHg 71%
23:00 +9°C° 0 mm 2 mps 669 mmHg 77%

Day after tomorrow, 9 August, Sunday

Time Temperature Precipitation Wind Pressure Humidity
00:00 +8°C° 0 mm 2 mps 669 mmHg 79%
01:00 +8°C° 0 mm 2 mps 669 mmHg 81%
02:00 +8°C° 0 mm 2 mps 669 mmHg 83%
03:00 +7°C° 0 mm 2 mps 668 mmHg 83%
04:00 +7°C° 0 mm 2 mps 668 mmHg 84%
05:00 +7°C° 0 mm 2 mps 667 mmHg 84%
06:00 +8°C° 0 mm 2 mps 668 mmHg 77%
07:00 +9°C° 0 mm 2 mps 668 mmHg 69%
08:00 +12°C° 0 mm 2 mps 669 mmHg 62%
09:00 +16°C° 0 mm 2 mps 669 mmHg 51%
10:00 +19°C° 0 mm 2 mps 670 mmHg 40%
11:00 +24°C° 0 mm 3 mps 671 mmHg 29%
12:00 +26°C° 0 mm 2 mps 670 mmHg 24%
13:00 +28°C° 0 mm 2 mps 669 mmHg 20%
14:00 +29°C° 0 mm 2 mps 669 mmHg 16%
15:00 +29°C° 0 mm 2 mps 669 mmHg 15%
16:00 +29°C° 0 mm 2 mps 668 mmHg 15%
17:00 +29°C° 0 mm 3 mps 668 mmHg 14%
18:00 +25°C° 0 mm 2 mps 668 mmHg 19%
19:00 +22°C° 0 mm 1 mps 667 mmHg 24%
20:00 +18°C° 0 mm 1 mps 666 mmHg 28%
21:00 +18°C° 0 mm 1 mps 667 mmHg 30%
22:00 +16°C° 0 mm 1 mps 667 mmHg 32%
23:00 +16°C° 0 mm 1 mps 667 mmHg 34%

10 August, Monday

Time Temperature Precipitation Wind Pressure Humidity
00:00 +15°C° 0 mm 1 mps 666 mmHg 35%
01:00 +15°C° 0 mm 1 mps 666 mmHg 37%
02:00 +14°C° 0 mm 1 mps 666 mmHg 38%
03:00 +14°C° 0 mm 1 mps 666 mmHg 39%
04:00 +13°C° 0 mm 1 mps 666 mmHg 41%
05:00 +13°C° 0 mm 1 mps 666 mmHg 42%
06:00 +14°C° 0 mm 1 mps 666 mmHg 38%
07:00 +15°C° 0 mm 1 mps 667 mmHg 34%
08:00 +18°C° 0 mm 1 mps 668 mmHg 31%
09:00 +21°C° 0 mm 1 mps 669 mmHg 25%
10:00 +25°C° 0 mm 1 mps 670 mmHg 20%
11:00 +28°C° 0 mm 1 mps 671 mmHg 14%
12:00 +29°C° 0 mm 2 mps 670 mmHg 12%
13:00 +30°C° 0 mm 3 mps 669 mmHg 10%
14:00 +31°C° 0 mm 3 mps 669 mmHg 8%
15:00 +30°C° 0 mm 3 mps 668 mmHg 8%
16:00 +30°C° 0 mm 4 mps 668 mmHg 8%
17:00 +29°C° 0 mm 4 mps 668 mmHg 8%
18:00 +26°C° 0 mm 3 mps 667 mmHg 10%
19:00 +21°C° 0 mm 2 mps 667 mmHg 12%
20:00 +18°C° 0 mm 2 mps 667 mmHg 15%
21:00 +18°C° 0 mm 1 mps 667 mmHg 15%
22:00 +16°C° 0 mm 1 mps 667 mmHg 16%
23:00 +15°C° 0 mm 1 mps 667 mmHg 16%

11 August, Tuesday

Time Temperature Precipitation Wind Pressure Humidity
00:00 +14°C° 0 mm 2 mps 667 mmHg 28%
01:00 +13°C° 0 mm 2 mps 667 mmHg 40%
02:00 +12°C° 0 mm 3 mps 667 mmHg 52%
03:00 +11°C° 0 mm 3 mps 667 mmHg 65%
04:00 +11°C° 0 mm 3 mps 667 mmHg 78%
05:00 +10°C° 0 mm 3 mps 667 mmHg 92%
06:00 +11°C° 0 mm 4 mps 668 mmHg 89%
07:00 +10°C° 0 mm 5 mps 669 mmHg 87%
08:00 +11°C° 0 mm 6 mps 669 mmHg 84%
09:00 +14°C° 0 mm 5 mps 670 mmHg 70%
10:00 +17°C° 0 mm 5 mps 670 mmHg 56%
11:00 +21°C° 0 mm 5 mps 671 mmHg 42%
12:00 +23°C° 0 mm 4 mps 671 mmHg 35%
13:00 +26°C° 0 mm 4 mps 670 mmHg 28%
14:00 +28°C° 0 mm 4 mps 670 mmHg 21%
15:00 +28°C° 0 mm 3 mps 669 mmHg 20%
16:00 +27°C° 0 mm 3 mps 669 mmHg 20%
17:00 +27°C° 0 mm 3 mps 668 mmHg 19%
18:00 +24°C° 0 mm 3 mps 668 mmHg 27%
19:00 +20°C° 0 mm 3 mps 668 mmHg 35%
20:00 +17°C° 0 mm 3 mps 668 mmHg 43%
21:00 +16°C° 0 mm 3 mps 668 mmHg 47%
22:00 +15°C° 0 mm 2 mps 668 mmHg 52%
23:00 +14°C° 0 mm 2 mps 667 mmHg 57%

12 August, Wednesday

Time Temperature Precipitation Wind Pressure Humidity
00:00 +13°C° 0 mm 2 mps 667 mmHg 62%
01:00 +12°C° 0 mm 2 mps 667 mmHg 67%
02:00 +12°C° 0 mm 2 mps 666 mmHg 72%
03:00 +12°C° 0 mm 2 mps 666 mmHg 71%
04:00 +12°C° 0 mm 2 mps 666 mmHg 71%
05:00 +10°C° 0 mm 2 mps 666 mmHg 70%
06:00 +13°C° 0 mm 2 mps 667 mmHg 63%
07:00 +14°C° 0 mm 2 mps 668 mmHg 56%
08:00 +16°C° 0 mm 1 mps 669 mmHg 48%
09:00 +21°C° 0 mm 1 mps 670 mmHg 38%
10:00 +25°C° 0 mm 1 mps 671 mmHg 28%
11:00 +27°C° 0 mm 0 mps 671 mmHg 18%
12:00 +30°C° 0 mm 1 mps 671 mmHg 15%
13:00 +31°C° 0 mm 1 mps 670 mmHg 13%
14:00 +32°C° 0 mm 1 mps 670 mmHg 10%
15:00 +32°C° 0 mm 2 mps 669 mmHg 10%
16:00 +31°C° 0 mm 3 mps 669 mmHg 10%
17:00 +30°C° 0 mm 3 mps 669 mmHg 10%
18:00 +27°C° 0 mm 3 mps 668 mmHg 14%
19:00 +24°C° 0 mm 2 mps 668 mmHg 17%
20:00 +21°C° 0 mm 1 mps 668 mmHg 20%
21:00 +20°C° 0 mm 1 mps 668 mmHg 21%
22:00 +19°C° 0 mm 1 mps 668 mmHg 23%
23:00 +18°C° 0 mm 1 mps 668 mmHg 24%
Show more